Data No.,UTC Date,UTC Time,Latitude,Longitude,Temp(degC),Sal(psu)
17706,2016/11/24,9:32:00,00-09.7000S,118-00.0700E,29.75,32.8089
17707,2016/11/24,9:33:00,00-09.5800S,118-00.2300E,29.769,32.8254
17708,2016/11/24,9:34:00,00-09.4700S,118-00.3900E,29.699,32.7076
17709,2016/11/24,9:35:00,00-09.3500S,118-00.5600E,29.66,32.6146
17710,2016/11/24,9:36:00,00-09.2300S,118-00.7200E,29.653,32.8044
17711,2016/11/24,9:37:00,00-09.1000S,118-00.8900E,29.652,32.8561
17712,2016/11/24,9:38:00,00-08.9900S,118-01.0500E,29.651,32.8254
17713,2016/11/24,9:39:00,00-08.8700S,118-01.2100E,29.657,32.8027
17714,2016/11/24,9:40:00,00-08.7500S,118-01.3700E,29.678,32.7973
17715,2016/11/24,9:41:00,00-08.6300S,118-01.5400E,29.675,32.78
17716,2016/11/24,9:42:00,00-08.5100S,118-01.7000E,29.672,32.7584
17717,2016/11/24,9:43:00,00-08.3900S,118-01.8600E,29.669,32.7263
17718,2016/11/24,9:44:00,00-08.2700S,118-02.0200E,29.68,32.6323
17719,2016/11/24,9:45:00,00-08.1500S,118-02.1900E,29.712,32.6782
17720,2016/11/24,9:46:00,00-08.0300S,118-02.3500E,29.775,32.6936
17721,2016/11/24,9:47:00,00-07.9100S,118-02.5100E,29.719,32.7128
17722,2016/11/24,9:48:00,00-07.7900S,118-02.6800E,29.678,32.7789
17723,2016/11/24,9:49:00,00-07.7000S,118-02.8500E,29.696,32.6142
17724,2016/11/24,9:50:00,00-07.6000S,118-03.0200E,29.737,32.4657
17725,2016/11/24,9:51:00,00-07.5000S,118-03.2000E,29.757,32.5624
17726,2016/11/24,9:52:00,00-07.4000S,118-03.3700E,29.752,32.8249
17727,2016/11/24,9:53:00,00-07.2900S,118-03.5500E,29.786,32.9321
17728,2016/11/24,9:54:00,00-07.1900S,118-03.7100E,29.784,32.9588
17729,2016/11/24,9:55:00,00-07.0700S,118-03.8800E,29.772,33.0404
17730,2016/11/24,9:56:00,00-06.9500S,118-04.0400E,29.801,33.05
17731,2016/11/24,9:57:00,00-06.8400S,118-04.2100E,29.808,32.9445
17732,2016/11/24,9:58:00,00-06.7100S,118-04.3800E,29.817,32.8505
17733,2016/11/24,9:59:00,00-06.5900S,118-04.5500E,29.854,32.8904
17734,2016/11/24,10:00:00,00-06.4800S,118-04.7200E,29.868,32.8639
17735,2016/11/24,10:01:00,00-06.3600S,118-04.8900E,29.895,32.801
17736,2016/11/24,10:02:00,00-06.2400S,118-05.0600E,29.91,32.7435
17737,2016/11/24,10:03:00,00-06.1200S,118-05.2300E,29.914,32.7412
17738,2016/11/24,10:04:00,00-06.0000S,118-05.4000E,29.86,32.6991
17739,2016/11/24,10:05:00,00-05.8800S,118-05.5700E,29.893,32.7357
17740,2016/11/24,10:06:00,00-05.7700S,118-05.7400E,29.903,32.9019
17741,2016/11/24,10:07:00,00-05.6500S,118-05.9100E,29.92,32.7322
17742,2016/11/24,10:08:00,00-05.5300S,118-06.0800E,29.928,32.8118
17743,2016/11/24,10:09:00,00-05.4100S,118-06.2500E,29.919,32.7997
17744,2016/11/24,10:10:00,00-05.3000S,118-06.4300E,29.923,32.8026
17745,2016/11/24,10:11:00,00-05.1800S,118-06.6000E,29.934,32.8533
17746,2016/11/24,10:12:00,00-05.0600S,118-06.7700E,29.942,32.8206
17747,2016/11/24,10:13:00,00-04.9400S,118-06.9400E,29.95,32.7967
17748,2016/11/24,10:14:00,00-04.8200S,118-07.1100E,29.955,32.6854
17749,2016/11/24,10:15:00,00-04.7000S,118-07.2800E,29.957,32.6033
17750,2016/11/24,10:16:00,00-04.5800S,118-07.4500E,29.915,32.6991
17751,2016/11/24,10:17:00,00-04.4600S,118-07.6200E,29.904,32.7484
17752,2016/11/24,10:18:00,00-04.3400S,118-07.7900E,29.967,32.8446
17753,2016/11/24,10:19:00,00-04.2200S,118-07.9600E,30.021,32.8665
17754,2016/11/24,10:20:00,00-04.1100S,118-08.1200E,29.961,32.6682
17755,2016/11/24,10:21:00,00-03.9800S,118-08.3000E,29.942,32.5729
17756,2016/11/24,10:22:00,00-03.8600S,118-08.4800E,30.039,32.7008
17757,2016/11/24,10:23:00,00-03.7400S,118-08.6500E,30.054,32.7432
17758,2016/11/24,10:24:00,00-03.6200S,118-08.8200E,29.943,32.6531
17759,2016/11/24,10:25:00,00-03.5000S,118-08.9900E,29.9,32.5912
17760,2016/11/24,10:26:00,00-03.3800S,118-09.1500E,29.944,32.7309
17761,2016/11/24,10:27:00,00-03.2600S,118-09.3200E,29.952,32.7801
17762,2016/11/24,10:28:00,00-03.1400S,118-09.4900E,29.995,32.7187
17763,2016/11/24,10:29:00,00-03.0200S,118-09.6500E,29.892,32.6603
17764,2016/11/24,10:30:00,00-02.9100S,118-09.8200E,29.877,32.6653
17765,2016/11/24,10:31:00,00-02.7900S,118-09.9800E,29.831,32.7298
17766,2016/11/24,10:32:00,00-02.6700S,118-10.1500E,29.846,32.7547
17767,2016/11/24,10:33:00,00-02.5500S,118-10.3100E,29.841,32.7825
17768,2016/11/24,10:34:00,00-02.4300S,118-10.4700E,29.845,32.7713
17769,2016/11/24,10:35:00,00-02.3100S,118-10.6400E,29.818,32.8226
17770,2016/11/24,10:36:00,00-02.1900S,118-10.8000E,29.817,32.8505
17771,2016/11/24,10:37:00,00-02.0800S,118-10.9700E,29.82,32.8181
17772,2016/11/24,10:38:00,00-01.9600S,118-11.1300E,29.828,32.8277
17773,2016/11/24,10:39:00,00-01.8400S,118-11.2900E,29.836,32.8597
17774,2016/11/24,10:40:00,00-01.7200S,118-11.4500E,29.833,32.8535
17775,2016/11/24,10:41:00,00-01.6000S,118-11.6200E,29.842,32.8989
17776,2016/11/24,10:42:00,00-01.4900S,118-11.7800E,29.85,32.871
17777,2016/11/24,10:43:00,00-01.3600S,118-11.9600E,29.864,32.8691
17778,2016/11/24,10:44:00,00-01.2400S,118-12.1200E,29.89,32.8331
17779,2016/11/24,10:45:00,00-01.1300S,118-12.2800E,29.893,32.7487
17780,2016/11/24,10:46:00,00-01.0300S,118-12.4600E,29.878,32.7374
17781,2016/11/24,10:47:00,00-00.9500S,118-12.6400E,29.876,32.729
17782,2016/11/24,10:48:00,00-00.8600S,118-12.8200E,29.878,32.7586
17783,2016/11/24,10:49:00,00-00.7800S,118-13.0000E,29.899,32.7651
17784,2016/11/24,10:50:00,00-00.6900S,118-13.1800E,29.886,32.7913
17785,2016/11/24,10:51:00,00-00.6100S,118-13.3600E,29.887,32.8257
17786,2016/11/24,10:52:00,00-00.5300S,118-13.5400E,29.903,32.8123
17787,2016/11/24,10:53:00,00-00.4400S,118-13.7300E,29.904,32.7779
17788,2016/11/24,10:54:00,00-00.3500S,118-13.9100E,29.911,32.793
17789,2016/11/24,10:55:00,00-00.2700S,118-14.0900E,29.932,32.7954
17790,2016/11/24,10:56:00,00-00.1800S,118-14.2800E,29.876,32.7829
17791,2016/11/24,10:57:00,00-00.0900S,118-14.4600E,29.834,32.7659
17792,2016/11/24,10:58:00,00-00.0100S,118-14.6500E,29.813,32.7837
17793,2016/11/24,10:59:00,00-00.0900N,118-14.8300E,29.803,32.8306
17794,2016/11/24,11:00:00,00-00.2000N,118-15.0000E,29.826,32.9358
17795,2016/11/24,11:01:00,00-00.3000N,118-15.1800E,29.82,33.0028
17796,2016/11/24,11:02:00,00-00.4000N,118-15.3500E,29.818,32.8681
17797,2016/11/24,11:03:00,00-00.5200N,118-15.5200E,29.813,32.9293
17798,2016/11/24,11:04:00,00-00.6300N,118-15.6800E,29.804,33.1464
17799,2016/11/24,11:05:00,00-00.7500N,118-15.8700E,29.804,33.1352
17800,2016/11/24,11:06:00,00-00.8700N,118-16.0300E,29.809,33.1007
17801,2016/11/24,11:07:00,00-01.0000N,118-16.1900E,29.806,33.106
17802,2016/11/24,11:08:00,00-01.1400N,118-16.3200E,29.796,33.0452
17803,2016/11/24,11:09:00,00-01.2900N,118-16.4600E,29.826,32.8691
17804,2016/11/24,11:10:00,00-01.4200N,118-16.6100E,29.799,32.865
17805,2016/11/24,11:11:00,00-01.5600N,118-16.7500E,29.782,32.7973
17806,2016/11/24,11:12:00,00-01.7100N,118-16.8800E,29.826,32.8197
17807,2016/11/24,11:13:00,00-01.8500N,118-17.0200E,29.826,32.8314
17808,2016/11/24,11:14:00,00-02.0000N,118-17.1600E,29.796,32.7709
17809,2016/11/24,11:15:00,00-02.1500N,118-17.3000E,29.812,32.7547
17810,2016/11/24,11:16:00,00-02.3000N,118-17.4400E,29.82,32.781
17811,2016/11/24,11:17:00,00-02.4500N,118-17.5700E,29.811,32.7356
17812,2016/11/24,11:18:00,00-02.6100N,118-17.6800E,29.815,32.7199
17813,2016/11/24,11:19:00,00-02.7900N,118-17.7800E,29.818,32.7146
17814,2016/11/24,11:20:00,00-02.9500N,118-17.9000E,29.84,32.7285
17815,2016/11/24,11:21:00,00-03.1200N,118-18.0200E,29.824,32.7304
17816,2016/11/24,11:22:00,00-03.2900N,118-18.1300E,29.841,32.7271
17817,2016/11/24,11:23:00,00-03.4600N,118-18.2400E,29.841,32.7417
17818,2016/11/24,11:24:00,00-03.6300N,118-18.3500E,29.83,32.7493
17819,2016/11/24,11:25:00,00-03.8000N,118-18.4700E,29.829,32.7612
17820,2016/11/24,11:26:00,00-03.9700N,118-18.5800E,29.815,32.7558
17821,2016/11/24,11:27:00,00-04.1500N,118-18.7000E,29.801,32.7443
17822,2016/11/24,11:28:00,00-04.3200N,118-18.8200E,29.794,32.7437
17823,2016/11/24,11:29:00,00-04.4900N,118-18.9300E,29.801,32.7473
17824,2016/11/24,11:30:00,00-04.6500N,118-19.0600E,29.873,32.7484
17825,2016/11/24,11:31:00,00-04.8000N,118-19.1900E,29.784,32.7224
17826,2016/11/24,11:32:00,00-04.9600N,118-19.3200E,29.76,32.7042
17827,2016/11/24,11:33:00,00-05.1200N,118-19.4400E,29.772,32.7612
17828,2016/11/24,11:34:00,00-05.2700N,118-19.5700E,29.771,32.7688
17829,2016/11/24,11:35:00,00-05.4400N,118-19.7000E,29.76,32.7353
17830,2016/11/24,11:36:00,00-05.5900N,118-19.8400E,29.829,32.7287
17831,2016/11/24,11:37:00,00-05.7200N,118-19.9800E,29.796,32.7217
17832,2016/11/24,11:38:00,00-05.8700N,118-20.1300E,29.781,32.7044
17833,2016/11/24,11:39:00,00-06.0100N,118-20.2700E,29.8,32.7324
17834,2016/11/24,11:40:00,00-06.1600N,118-20.4100E,29.832,32.767
17835,2016/11/24,11:41:00,00-06.3000N,118-20.5600E,29.784,32.7146
17836,2016/11/24,11:42:00,00-06.4300N,118-20.7100E,29.812,32.6874
17837,2016/11/24,11:43:00,00-06.5600N,118-20.8600E,29.853,32.7006
17838,2016/11/24,11:44:00,00-06.7000N,118-21.0100E,29.856,32.7832
17839,2016/11/24,11:45:00,00-06.8300N,118-21.1600E,29.84,32.8755
17840,2016/11/24,11:46:00,00-06.9700N,118-21.3100E,29.839,32.8822
17841,2016/11/24,11:47:00,00-07.1100N,118-21.4600E,29.85,32.8683
17842,2016/11/24,11:48:00,00-07.2400N,118-21.6000E,29.844,32.8679
17843,2016/11/24,11:49:00,00-07.3900N,118-21.7700E,29.851,32.8404
17844,2016/11/24,11:50:00,00-07.5300N,118-21.9200E,29.876,32.8145
17845,2016/11/24,11:51:00,00-07.6700N,118-22.0700E,29.888,32.8
17846,2016/11/24,11:52:00,00-07.8000N,118-22.2300E,29.9,32.7732
17847,2016/11/24,11:53:00,00-07.9100N,118-22.4000E,29.888,32.7352
17848,2016/11/24,11:54:00,00-08.0400N,118-22.5700E,29.911,32.7337
17849,2016/11/24,11:55:00,00-08.1600N,118-22.7300E,29.915,32.7877
17850,2016/11/24,11:56:00,00-08.2800N,118-22.9000E,29.917,32.8593
17851,2016/11/24,11:57:00,00-08.4000N,118-23.0700E,29.936,32.8352
17852,2016/11/24,11:58:00,00-08.5200N,118-23.2400E,29.963,32.8227
17853,2016/11/24,11:59:00,00-08.6500N,118-23.4100E,29.976,32.8022
17854,2016/11/24,12:00:00,00-08.7700N,118-23.5800E,29.988,32.7885
17855,2016/11/24,12:01:00,00-08.8900N,118-23.7500E,29.951,32.7741
17856,2016/11/24,12:02:00,00-09.0200N,118-23.9100E,29.951,32.7605
17857,2016/11/24,12:03:00,00-09.1400N,118-24.0800E,29.932,32.7706
17858,2016/11/24,12:04:00,00-09.2600N,118-24.2600E,29.924,32.7881
17859,2016/11/24,12:05:00,00-09.3900N,118-24.4200E,29.927,32.8129
17860,2016/11/24,12:06:00,00-09.5100N,118-24.5900E,29.918,32.8323
17861,2016/11/24,12:07:00,00-09.6400N,118-24.7600E,29.929,32.7923
17862,2016/11/24,12:08:00,00-09.7600N,118-24.9300E,29.933,32.7417
17863,2016/11/24,12:09:00,00-09.8800N,118-25.1000E,29.942,32.7532
17864,2016/11/24,12:10:00,00-10.0100N,118-25.2800E,29.938,32.7617
17865,2016/11/24,12:11:00,00-10.1400N,118-25.4500E,29.95,32.7428
17866,2016/11/24,12:12:00,00-10.2600N,118-25.6200E,29.935,32.7878
17867,2016/11/24,12:13:00,00-10.3800N,118-25.7800E,29.948,32.7655
17868,2016/11/24,12:14:00,00-10.5100N,118-25.9500E,29.936,32.7281
17869,2016/11/24,12:15:00,00-10.6300N,118-26.1200E,29.948,32.7143
17870,2016/11/24,12:16:00,00-10.7500N,118-26.2900E,29.968,32.6742
17871,2016/11/24,12:17:00,00-10.8800N,118-26.4600E,29.972,32.6541
17872,2016/11/24,12:18:00,00-11.0000N,118-26.6200E,29.976,32.6501
17873,2016/11/24,12:19:00,00-11.1200N,118-26.8000E,29.981,32.624
17874,2016/11/24,12:20:00,00-11.2400N,118-26.9700E,29.942,32.6735
17875,2016/11/24,12:21:00,00-11.3600N,118-27.1300E,29.905,32.682
17876,2016/11/24,12:22:00,00-11.4900N,118-27.3000E,29.953,32.7372
17877,2016/11/24,12:23:00,00-11.6200N,118-27.4700E,29.984,32.7477
17878,2016/11/24,12:24:00,00-11.7400N,118-27.6400E,29.939,32.7154
17879,2016/11/24,12:25:00,00-11.8500N,118-27.8100E,29.94,32.6935
17880,2016/11/24,12:26:00,00-11.9700N,118-27.9800E,29.946,32.7058
17881,2016/11/24,12:27:00,00-12.1000N,118-28.1500E,29.952,32.6778
17882,2016/11/24,12:28:00,00-12.2200N,118-28.3100E,29.963,32.6593
17883,2016/11/24,12:29:00,00-12.3400N,118-28.4800E,29.967,32.6507
17884,2016/11/24,12:30:00,00-12.4700N,118-28.6500E,29.984,32.6595
17885,2016/11/24,12:31:00,00-12.5900N,118-28.8200E,30.016,32.6803
17886,2016/11/24,12:32:00,00-12.7300N,118-29.0000E,29.995,32.6903
17887,2016/11/24,12:33:00,00-12.8500N,118-29.1700E,29.988,32.6903
17888,2016/11/24,12:34:00,00-12.9700N,118-29.3300E,29.972,32.6878
17889,2016/11/24,12:35:00,00-13.0900N,118-29.5000E,29.952,32.6755
17890,2016/11/24,12:36:00,00-13.2200N,118-29.6700E,29.956,32.6653
17891,2016/11/24,12:37:00,00-13.3400N,118-29.8300E,29.958,32.6721
17892,2016/11/24,12:38:00,00-13.4600N,118-30.0000E,29.902,32.6738
17893,2016/11/24,12:39:00,00-13.5900N,118-30.1700E,29.851,32.6594
17894,2016/11/24,12:40:00,00-13.7100N,118-30.3300E,29.831,32.6534
17895,2016/11/24,12:41:00,00-13.8400N,118-30.5000E,29.832,32.6615
17896,2016/11/24,12:42:00,00-13.9600N,118-30.6600E,29.826,32.6374
17897,2016/11/24,12:43:00,00-14.0800N,118-30.8300E,29.827,32.6148
17898,2016/11/24,12:44:00,00-14.2100N,118-31.0000E,29.827,32.6296
17899,2016/11/24,12:45:00,00-14.3300N,118-31.1600E,29.825,32.6333
17900,2016/11/24,12:46:00,00-14.4500N,118-31.3300E,29.841,32.6339
17901,2016/11/24,12:47:00,00-14.5800N,118-31.5000E,29.86,32.6412
17902,2016/11/24,12:48:00,00-14.7100N,118-31.6700E,29.85,32.6244
17903,2016/11/24,12:49:00,00-14.8300N,118-31.8400E,29.867,32.6165
17904,2016/11/24,12:50:00,00-14.9500N,118-32.0000E,29.872,32.6426
17905,2016/11/24,12:51:00,00-15.0800N,118-32.1700E,29.865,32.634
17906,2016/11/24,12:52:00,00-15.2100N,118-32.3400E,29.882,32.6421
17907,2016/11/24,12:53:00,00-15.3400N,118-32.5200E,29.908,32.65
17908,2016/11/24,12:54:00,00-15.4700N,118-32.6900E,29.906,32.6494
17909,2016/11/24,12:55:00,00-15.5900N,118-32.8500E,29.888,32.6426
17910,2016/11/24,12:56:00,00-15.7200N,118-33.0200E,29.81,32.6554
17911,2016/11/24,12:57:00,00-15.8500N,118-33.2000E,29.839,32.6779
17912,2016/11/24,12:58:00,00-15.9700N,118-33.3600E,29.867,32.7456
17913,2016/11/24,12:59:00,00-16.1000N,118-33.5300E,29.893,32.7807
17914,2016/11/24,13:00:00,00-16.2200N,118-33.7000E,29.918,32.8131
17915,2016/11/24,13:01:00,00-16.3500N,118-33.8600E,29.941,32.8422
17916,2016/11/24,13:02:00,00-16.4800N,118-34.0400E,29.932,32.8448
17917,2016/11/24,13:03:00,00-16.6000N,118-34.2000E,29.929,32.8302
17918,2016/11/24,13:04:00,00-16.7200N,118-34.3600E,29.926,32.8398
17919,2016/11/24,13:05:00,00-16.8500N,118-34.5300E,29.925,32.8538
17920,2016/11/24,13:06:00,00-16.9700N,118-34.7000E,29.94,32.8603
17921,2016/11/24,13:07:00,00-17.0900N,118-34.8700E,29.943,32.8615
17922,2016/11/24,13:08:00,00-17.2200N,118-35.0300E,29.924,32.857
17923,2016/11/24,13:09:00,00-17.3400N,118-35.2000E,29.99,32.8573
17924,2016/11/24,13:10:00,00-17.4700N,118-35.3700E,29.958,32.8559
17925,2016/11/24,13:11:00,00-17.5900N,118-35.5400E,29.918,32.8514
17926,2016/11/24,13:12:00,00-17.7200N,118-35.7000E,29.867,32.8551
17927,2016/11/24,13:13:00,00-17.8400N,118-35.8700E,29.861,32.8575
17928,2016/11/24,13:14:00,00-17.9600N,118-36.0400E,29.83,32.8667
17929,2016/11/24,13:15:00,00-18.1000N,118-36.2200E,29.871,32.8746
17930,2016/11/24,13:16:00,00-18.2300N,118-36.3900E,29.897,32.8888
17931,2016/11/24,13:17:00,00-18.3500N,118-36.5600E,29.926,32.8712
17932,2016/11/24,13:18:00,00-18.4700N,118-36.7300E,29.879,32.8615
17933,2016/11/24,13:19:00,00-18.6000N,118-36.8900E,29.865,32.8594
17934,2016/11/24,13:20:00,00-18.7200N,118-37.0500E,29.847,32.8654
17935,2016/11/24,13:21:00,00-18.8400N,118-37.2200E,29.896,32.8565
17936,2016/11/24,13:22:00,00-18.9600N,118-37.3900E,29.876,32.8466
17937,2016/11/24,13:23:00,00-19.0800N,118-37.5500E,29.879,32.8403
17938,2016/11/24,13:24:00,00-19.2000N,118-37.7200E,29.883,32.8417
17939,2016/11/24,13:25:00,00-19.3300N,118-37.8900E,29.873,32.84
17940,2016/11/24,13:26:00,00-19.4500N,118-38.0600E,29.85,32.8454
17941,2016/11/24,13:27:00,00-19.5700N,118-38.2200E,29.809,32.8524
17942,2016/11/24,13:28:00,00-19.6900N,118-38.3900E,29.816,32.8481
17943,2016/11/24,13:29:00,00-19.8200N,118-38.5600E,29.785,32.8376
17944,2016/11/24,13:30:00,00-19.9400N,118-38.7300E,29.814,32.8123
17945,2016/11/24,13:31:00,00-20.0600N,118-38.9000E,29.815,32.8069
17946,2016/11/24,13:32:00,00-20.1800N,118-39.0700E,29.798,32.7999
17947,2016/11/24,13:33:00,00-20.3000N,118-39.2400E,29.798,32.8082
17948,2016/11/24,13:34:00,00-20.4300N,118-39.4000E,29.785,32.8305
17949,2016/11/24,13:35:00,00-20.5500N,118-39.5700E,29.796,32.8439
17950,2016/11/24,13:36:00,00-20.6800N,118-39.7500E,29.822,32.8614
17951,2016/11/24,13:37:00,00-20.8000N,118-39.9200E,29.841,32.8537
17952,2016/11/24,13:38:00,00-20.9200N,118-40.0900E,29.839,32.8393
17953,2016/11/24,13:39:00,00-21.0500N,118-40.2600E,29.84,32.8328
17954,2016/11/24,13:40:00,00-21.1700N,118-40.4300E,29.867,32.8296
17955,2016/11/24,13:41:00,00-21.2900N,118-40.6000E,29.883,32.8222
17956,2016/11/24,13:42:00,00-21.4100N,118-40.7700E,29.911,32.8069
17957,2016/11/24,13:43:00,00-21.5400N,118-40.9400E,29.952,32.7952
17958,2016/11/24,13:44:00,00-21.6600N,118-41.1100E,29.95,32.7866
17959,2016/11/24,13:45:00,00-21.7900N,118-41.2800E,30.004,32.7928
17960,2016/11/24,13:46:00,00-21.9100N,118-41.4500E,29.883,32.8017
17961,2016/11/24,13:47:00,00-22.0300N,118-41.6200E,29.875,32.8324
17962,2016/11/24,13:48:00,00-22.1500N,118-41.7900E,29.891,32.9118
17963,2016/11/24,13:49:00,00-22.2700N,118-41.9600E,29.936,32.9105
17964,2016/11/24,13:50:00,00-22.4000N,118-42.1300E,29.918,32.9392
17965,2016/11/24,13:51:00,00-22.5200N,118-42.3000E,29.939,32.9635
17966,2016/11/24,13:52:00,00-22.6400N,118-42.4700E,29.933,32.9266
17967,2016/11/24,13:53:00,00-22.7800N,118-42.6400E,29.914,32.9477
17968,2016/11/24,13:54:00,00-22.9200N,118-42.7900E,29.934,32.9829
17969,2016/11/24,13:55:00,00-23.0500N,118-42.9500E,29.971,32.9961
17970,2016/11/24,13:56:00,00-23.1900N,118-43.1200E,29.95,32.9635
17971,2016/11/24,13:57:00,00-23.3300N,118-43.2800E,29.937,32.9499
17972,2016/11/24,13:58:00,00-23.4800N,118-43.4500E,29.916,32.9582
17973,2016/11/24,13:59:00,00-23.6100N,118-43.6100E,29.89,32.948
17974,2016/11/24,14:00:00,00-23.7500N,118-43.7700E,29.857,32.9757
17975,2016/11/24,14:01:00,00-23.8900N,118-43.9300E,29.834,32.9855
17976,2016/11/24,14:02:00,00-24.0300N,118-44.0900E,29.837,32.9902
17977,2016/11/24,14:03:00,00-24.1700N,118-44.2500E,29.837,32.9882
17978,2016/11/24,14:04:00,00-24.3100N,118-44.4100E,29.841,32.9806
17979,2016/11/24,14:05:00,00-24.4500N,118-44.5700E,29.842,32.9808
17980,2016/11/24,14:06:00,00-24.5900N,118-44.7300E,29.839,32.9834
17981,2016/11/24,14:07:00,00-24.7300N,118-44.8900E,29.877,33.0033
17982,2016/11/24,14:08:00,00-24.8700N,118-45.0500E,29.887,33.0062
17983,2016/11/24,14:09:00,00-25.0000N,118-45.2100E,29.906,32.9938
17984,2016/11/24,14:10:00,00-25.1400N,118-45.3700E,29.923,33.0008
17985,2016/11/24,14:11:00,00-25.2800N,118-45.5300E,29.871,32.9996
17986,2016/11/24,14:12:00,00-25.4200N,118-45.6900E,29.862,33.0161
17987,2016/11/24,14:13:00,00-25.5500N,118-45.8500E,29.96,33.0273
17988,2016/11/24,14:14:00,00-25.6900N,118-46.0100E,29.998,33.0334
17989,2016/11/24,14:15:00,00-25.8300N,118-46.1700E,30.015,33.0304
17990,2016/11/24,14:16:00,00-25.9600N,118-46.3300E,29.983,33.0319
17991,2016/11/24,14:17:00,00-26.1000N,118-46.4900E,30.168,33.0332
17992,2016/11/24,14:18:00,00-26.2200N,118-46.6600E,30.035,33.0272
17993,2016/11/24,14:19:00,00-26.3300N,118-46.8400E,29.924,32.9913
17994,2016/11/24,14:20:00,00-26.4600N,118-47.0300E,29.87,32.9747
17995,2016/11/24,14:21:00,00-26.5800N,118-47.2000E,29.917,33.022
17996,2016/11/24,14:22:00,00-26.6900N,118-47.3800E,29.927,33.0412
17997,2016/11/24,14:23:00,00-26.8100N,118-47.5500E,29.865,33.0214
17998,2016/11/24,14:24:00,00-26.9300N,118-47.7200E,29.865,33.023
17999,2016/11/24,14:25:00,00-27.0500N,118-47.9000E,29.894,33.0484
18000,2016/11/24,14:26:00,00-27.1700N,118-48.0700E,29.875,33.0421
18001,2016/11/24,14:27:00,00-27.2800N,118-48.2500E,29.891,33.0372
18002,2016/11/24,14:28:00,00-27.4000N,118-48.4200E,29.906,33.0458
18003,2016/11/24,14:29:00,00-27.5200N,118-48.6000E,29.934,33.061
18004,2016/11/24,14:30:00,00-27.6400N,118-48.7800E,29.957,33.0901
18005,2016/11/24,14:31:00,00-27.7500N,118-48.9500E,30.085,33.0872
18006,2016/11/24,14:32:00,00-27.8700N,118-49.1200E,30.2,33.0721
18007,2016/11/24,14:33:00,00-27.9800N,118-49.3000E,30.255,33.0957
18008,2016/11/24,14:34:00,00-28.1000N,118-49.4800E,30.235,33.1282
18009,2016/11/24,14:35:00,00-28.2100N,118-49.6500E,30.27,33.142
18010,2016/11/24,14:36:00,00-28.3300N,118-49.8300E,30.179,33.1398
18011,2016/11/24,14:37:00,00-28.4500N,118-50.0000E,30.093,33.1372
18012,2016/11/24,14:38:00,00-28.5600N,118-50.1800E,30.076,33.1354
18013,2016/11/24,14:39:00,00-28.6800N,118-50.3600E,29.919,33.1342
18014,2016/11/24,14:40:00,00-28.8000N,118-50.5400E,29.88,33.1296
18015,2016/11/24,14:41:00,00-28.9400N,118-50.7100E,29.861,33.1291
18016,2016/11/24,14:42:00,00-29.0700N,118-50.8800E,29.925,33.1318
18017,2016/11/24,14:43:00,00-29.1900N,118-51.0500E,29.92,33.1334
18018,2016/11/24,14:44:00,00-29.3200N,118-51.2100E,29.918,33.1285
18019,2016/11/24,14:45:00,00-29.4500N,118-51.3800E,29.933,33.1271
18020,2016/11/24,14:46:00,00-29.5800N,118-51.5500E,29.936,33.1258
18021,2016/11/24,14:47:00,00-29.7000N,118-51.7200E,30.055,33.1218
18022,2016/11/24,14:48:00,00-29.8300N,118-51.8900E,30.117,33.1246
18023,2016/11/24,14:49:00,00-29.9600N,118-52.0600E,30.017,33.1282
18024,2016/11/24,14:50:00,00-30.0800N,118-52.2300E,30.115,33.134
18025,2016/11/24,14:51:00,00-30.2100N,118-52.4000E,30.052,33.1302
18026,2016/11/24,14:52:00,00-30.3300N,118-52.5700E,29.946,33.1375
18027,2016/11/24,14:53:00,00-30.4600N,118-52.7400E,29.907,33.1368
18028,2016/11/24,14:54:00,00-30.5800N,118-52.9100E,29.928,33.1405
18029,2016/11/24,14:55:00,00-30.7100N,118-53.0800E,29.976,33.1427
18030,2016/11/24,14:56:00,00-30.8300N,118-53.2500E,29.954,33.1412
18031,2016/11/24,14:57:00,00-30.9600N,118-53.4100E,29.909,33.1261
18032,2016/11/24,14:58:00,00-31.0900N,118-53.5800E,29.904,33.1155
18033,2016/11/24,14:59:00,00-31.2100N,118-53.7600E,29.881,33.1192
18034,2016/11/24,15:00:00,00-31.3300N,118-53.9200E,29.847,33.096
18035,2016/11/24,15:01:00,00-31.4600N,118-54.1000E,29.801,33.0874
18036,2016/11/24,15:02:00,00-31.6000N,118-54.2800E,29.813,33.0461
18037,2016/11/24,15:03:00,00-31.7300N,118-54.4500E,29.825,33.0387
18038,2016/11/24,15:04:00,00-31.8500N,118-54.6200E,29.827,33.0412
18039,2016/11/24,15:05:00,00-31.9800N,118-54.7900E,29.805,33.0047
18040,2016/11/24,15:06:00,00-32.1100N,118-54.9600E,29.81,33.0353
18041,2016/11/24,15:07:00,00-32.2300N,118-55.1300E,29.81,33.0221
18042,2016/11/24,15:08:00,00-32.3600N,118-55.3000E,29.817,33.0004
18043,2016/11/24,15:09:00,00-32.4900N,118-55.4700E,29.811,33.0145
18044,2016/11/24,15:10:00,00-32.6100N,118-55.6400E,29.806,33.0365
18045,2016/11/24,15:11:00,00-32.7400N,118-55.8100E,29.814,33.0374
18046,2016/11/24,15:12:00,00-32.8600N,118-55.9700E,29.812,33.055
18047,2016/11/24,15:13:00,00-32.9900N,118-56.1500E,29.834,33.0556
18048,2016/11/24,15:14:00,00-33.1100N,118-56.3100E,29.847,33.056
18049,2016/11/24,15:15:00,00-33.2400N,118-56.4800E,29.885,33.0313
18050,2016/11/24,15:16:00,00-33.3700N,118-56.6500E,29.885,33.0365
18051,2016/11/24,15:17:00,00-33.4900N,118-56.8300E,29.839,33.0402
18052,2016/11/24,15:18:00,00-33.6100N,118-56.9900E,29.842,33.0548
18053,2016/11/24,15:19:00,00-33.7400N,118-57.1700E,29.836,33.0725
18054,2016/11/24,15:20:00,00-33.8700N,118-57.3300E,29.854,33.0644
18055,2016/11/24,15:21:00,00-33.9900N,118-57.5000E,29.85,33.0721
18056,2016/11/24,15:22:00,00-34.1200N,118-57.6700E,29.835,33.0641
18057,2016/11/24,15:23:00,00-34.2400N,118-57.8400E,29.835,33.0621
18058,2016/11/24,15:24:00,00-34.3800N,118-58.0100E,29.839,33.0669
18059,2016/11/24,15:25:00,00-34.5100N,118-58.1900E,29.872,33.1025
18060,2016/11/24,15:26:00,00-34.6400N,118-58.3700E,29.897,33.1094
18061,2016/11/24,15:27:00,00-34.7600N,118-58.5400E,29.901,33.1019
18062,2016/11/24,15:28:00,00-34.8900N,118-58.7100E,29.885,33.0927
18063,2016/11/24,15:29:00,00-35.0100N,118-58.8800E,29.865,33.0909